[[{"header":{"parameterUnit":"m.s-1","parameterCategory":1,"la1":30.2991,"la2":30.254,"lo1":-89.0895,"lo2":-89.0444,"dy":0.0017,"dx":0.0017,"nx":28,"ny":28,"refTime":"2024-06-03T03:00:00:Z","depth":0,"parameterNumber":2,"parameterNumberName":"U-component_of_WINDS"},"data":[0,0,0,0,0,0,0,0,0,0,0,0,0,0,0,0,0,0,0,0,0,0,0,0,0,0,0,0,0,0,0,0,0,0,0,0,0,0,0,0,0,0,0,0,0,0,0,0,0,0,0,0,0,0,0,0,0,0,-1.7586,-1.7585,0,-1.7516,-1.7515,-1.7514,-1.7463,-1.7463,-1.7462,-1.7462,-1.7388,-1.7386,-1.7385,0,0,0,0,0,0,0,0,0,0,0,0,0,-1.7675,-1.7674,-1.7586,-1.7585,-1.7584,-1.7516,-1.7515,-1.7514,-1.7463,-1.7463,-1.7462,-1.7462,-1.7388,-1.7387,-1.7385,0,0,0,0,0,0,0,0,0,0,0,0,0,-1.7624,-1.7673,-1.7586,-1.7551,-1.7547,-1.7516,-1.7515,-1.7514,-1.7463,-1.7463,-1.7462,-1.7461,-1.7389,-1.7387,-1.7384,-1.7383,0,0,-1.7377,-1.7376,0,0,0,0,0,0,0,0,-1.7627,-1.762,-1.7557,-1.7553,-1.7549,-1.7498,-1.7519,-1.747,-1.7463,-1.7495,-1.7462,-1.7461,-1.7425,-1.7419,-1.7408,-1.7379,-1.7376,-1.7377,-1.7376,-1.7375,-1.7374,0,0,0,0,0,0,0,-1.763,-1.7623,-1.7558,-1.7556,-1.7551,-1.7538,-1.753,-1.751,-1.7464,-1.7492,-1.7488,-1.7481,-1.7422,-1.741,-1.7405,-1.7375,-1.7377,-1.7375,-1.7373,-1.7373,-1.7341,-1.7342,0,0,0,0,0,0,-1.764,-1.7626,-1.756,-1.7556,-1.7587,-1.7537,-1.7528,-1.7515,-1.7464,-1.7456,-1.7481,-1.7479,-1.7414,-1.7408,-1.7403,-1.7397,-1.7375,-1.7372,-1.7371,-1.7341,-1.7341,-1.7342,0,0,0,0,0,0,-1.7642,-1.7634,-1.7563,-1.759,-1.758,-1.7536,-1.7522,-1.7514,-1.7501,-1.7456,-1.7448,-1.7477,-1.7414,-1.7406,-1.7388,-1.7393,-1.7371,-1.7369,-1.734,-1.7341,-1.7342,-1.7385,0,0,0,0,0,0,-1.7644,-1.7635,-1.7634,-1.7591,-1.7579,-1.755,-1.7522,-1.7513,-1.7497,-1.7493,-1.745,-1.7442,-1.7412,-1.7392,-1.7386,-1.739,-1.7367,-1.7339,-1.734,-1.7341,-1.7383,-1.7387,-1.7391,0,0,0,0,0,-1.7648,-1.7649,-1.7635,-1.7627,-1.7577,-1.7551,-1.7544,-1.7511,-1.7498,-1.7497,-1.7468,-1.7443,-1.7394,-1.739,-1.7383,-1.7386,-1.7339,-1.734,-1.7341,-1.7381,-1.7387,-1.7391,0,0,0,0,0,0,-1.7694,-1.7643,-1.7626,-1.7613,-1.7587,-1.7542,-1.7539,-1.7517,-1.7493,-1.749,-1.7449,-1.744,-1.7426,-1.7405,-1.7401,-1.7382,-1.7363,-1.7363,-1.7396,-1.7401,-1.7405,-1.741,-1.7365,0,0,0,0,0,-1.7703,-1.7686,-1.7642,-1.7635,-1.7623,-1.7584,-1.7571,-1.7548,-1.7518,-1.7507,-1.7476,-1.7448,-1.7426,-1.7413,-1.739,-1.738,-1.737,-1.7379,-1.7383,-1.7387,-1.7387,-1.7379,-1.7383,-1.7346,-1.7346,-1.7346,0,0,-1.7721,-1.7691,-1.7682,-1.7644,-1.7621,-1.7604,-1.7574,-1.7558,-1.7545,-1.7504,-1.7485,-1.7462,-1.7428,-1.7414,-1.7406,-1.7396,-1.7395,-1.7388,-1.7392,-1.7389,-1.7381,-1.7384,-1.7387,-1.7347,-1.7347,-1.7347,0,0,-1.7744,-1.772,-1.7711,-1.7689,-1.7654,-1.7628,-1.7627,-1.7585,-1.7569,-1.7549,-1.7518,-1.7502,-1.7465,-1.7442,-1.7426,-1.7442,-1.7418,-1.7436,-1.7456,-1.7449,-1.7452,-1.7455,-1.7459,-1.7462,-1.7436,-1.7436,-1.7436,0,-1.777,-1.7744,-1.771,-1.7695,-1.7679,-1.7642,-1.7632,-1.7612,-1.7572,-1.7561,-1.755,-1.7504,-1.7478,-1.7458,-1.7462,-1.745,-1.7446,-1.7439,-1.7455,-1.7457,-1.7458,-1.7462,-1.7464,-1.7438,-1.7438,-1.7438,-1.7438,0,-1.7777,-1.776,-1.7757,-1.772,-1.7703,-1.7691,-1.7655,-1.7642,-1.762,-1.7596,-1.7576,-1.7545,-1.7515,-1.7509,-1.7487,-1.7485,-1.748,-1.7463,-1.7443,-1.7465,-1.7468,-1.7469,-1.7442,-1.7441,-1.744,-1.7439,0,0,-1.7827,-1.7771,-1.777,-1.7753,-1.7712,-1.7698,-1.7684,-1.7656,-1.7645,-1.7619,-1.7606,-1.7577,-1.7561,-1.7542,-1.7518,-1.7512,-1.7526,-1.7495,-1.7494,-1.7501,-1.7521,-1.7533,-1.7535,-1.7511,-1.7511,-1.7511,-1.7523,0,-1.7843,-1.7817,-1.7786,-1.777,-1.7753,-1.7718,-1.7706,-1.768,-1.7657,-1.7638,-1.7612,-1.7592,-1.7572,-1.7561,-1.7554,-1.7526,-1.7529,-1.7524,-1.7497,-1.7496,-1.7505,-1.7537,-1.755,-1.7563,-1.7524,-1.7525,-1.7525,0,-1.7858,-1.7834,-1.7817,-1.7778,-1.7769,-1.7759,-1.7731,-1.7714,-1.7684,-1.7667,-1.7647,-1.7621,-1.7605,-1.7588,-1.7565,-1.7562,-1.7549,-1.7534,-1.7534,-1.7528,-1.7511,-1.7532,-1.7566,-1.7568,-1.7526,-1.7526,-1.7526,0,-1.7894,-1.7858,-1.7842,-1.7829,-1.7783,-1.7777,-1.7757,-1.7726,-1.7711,-1.7686,-1.7676,-1.765,-1.7635,-1.7615,-1.7582,-1.7574,-1.7562,-1.7543,-1.7547,-1.7548,-1.7544,-1.7545,-1.7576,-1.7539,-1.7539,-1.7539,-1.7539,0,-1.7915,-1.7905,-1.7858,-1.7849,-1.7837,-1.7802,-1.7791,-1.7768,-1.7741,-1.7726,-1.7695,-1.7682,-1.764,-1.7622,-1.7597,-1.7581,-1.7574,-1.756,-1.7553,-1.7562,-1.7564,-1.7552,-1.7549,-1.7539,-1.7539,-1.7539,-1.7539,0,-1.7953,-1.7921,-1.7902,-1.7861,-1.785,-1.7843,-1.7807,-1.7797,-1.7772,-1.7754,-1.7747,-1.7709,-1.7685,-1.7652,-1.7618,-1.7601,-1.7589,-1.7578,-1.7599,-1.7594,-1.76,-1.7599,-1.7624,-1.7625,-1.7588,-1.7588,-1.7589,0,-1.7967,-1.7959,-1.7917,-1.7905,-1.7887,-1.7868,-1.7853,-1.7818,-1.7803,-1.7768,-1.7762,-1.7736,-1.7714,-1.7679,-1.7647,-1.7621,-1.7609,-1.762,-1.7605,-1.7614,-1.7608,-1.7608,-1.7607,-1.7623,-1.7623,-1.7624,-1.7624,0,-1.7996,-1.7981,-1.796,-1.7934,-1.7917,-1.7894,-1.787,-1.7862,-1.7822,-1.7807,-1.7783,-1.7766,-1.7732,-1.7707,-1.7677,-1.7657,-1.7634,-1.7629,-1.7629,-1.7637,-1.7649,-1.7641,-1.7607,-1.7628,-1.7628,-1.7628,-1.7627,-1.7627,-1.8022,-1.8013,-1.7982,-1.796,-1.7938,-1.7917,-1.7905,-1.7879,-1.7858,-1.7828,-1.7809,-1.7786,-1.7756,-1.7714,-1.7694,-1.7676,-1.7666,-1.7665,-1.7665,-1.7665,-1.7667,-1.7653,-1.767,-1.767,-1.767,-1.767,-1.767,0,-1.8048,-1.8027,-1.8007,-1.7975,-1.7957,-1.7938,-1.791,-1.7897,-1.7877,-1.7851,-1.783,-1.7803,-1.7779,-1.7746,-1.7719,-1.771,-1.7699,-1.7704,-1.7704,-1.7699,-1.7678,-1.7681,-1.7714,-1.7714,-1.7714,-1.7714,-1.7714,-1.7714,-1.806,-1.8043,-1.8025,-1.7997,-1.7976,-1.7953,-1.7939,-1.7919,-1.7898,-1.7869,-1.7849,-1.7828,-1.7799,-1.777,-1.7746,-1.7737,-1.7728,-1.7737,-1.7724,-1.7705,-1.7701,-1.7697,-1.7699,-1.7735,-1.7735,-1.7747,-1.7747,-1.7747]},{"header":{"parameterUnit":"m.s-1","parameterCategory":1,"la1":30.2991,"la2":30.254,"lo1":-89.0895,"lo2":-89.0444,"dy":0.0017,"dx":0.0017,"nx":28,"ny":28,"refTime":"2024-06-03T03:00:00:Z","depth":0,"parameterNumber":3,"parameterNumberName":"V-component_of_WINDS"},"data":[0,0,0,0,0,0,0,0,0,0,0,0,0,0,0,0,0,0,0,0,0,0,0,0,0,0,0,0,0,0,0,0,0,0,0,0,0,0,0,0,0,0,0,0,0,0,0,0,0,0,0,0,0,0,0,0,0,0,5.8389,5.8389,0,5.8393,5.8393,5.8393,5.836,5.8359,5.8358,5.8357,5.836,5.8361,5.8362,0,0,0,0,0,0,0,0,0,0,0,0,0,5.8353,5.8354,5.8389,5.8389,5.8389,5.8393,5.8393,5.8393,5.836,5.8359,5.8358,5.8357,5.836,5.8361,5.8362,0,0,0,0,0,0,0,0,0,0,0,0,0,5.8364,5.8354,5.8389,5.8373,5.8372,5.8393,5.8393,5.8393,5.8361,5.8359,5.8358,5.8357,5.836,5.8361,5.8362,5.8398,0,0,5.8366,5.8367,0,0,0,0,0,0,0,0,5.8363,5.8365,5.8375,5.8374,5.8373,5.8375,5.8381,5.8395,5.8361,5.8365,5.8357,5.8356,5.8366,5.8367,5.837,5.8398,5.8398,5.8367,5.8367,5.8368,5.8368,0,0,0,0,0,0,0,5.8362,5.8365,5.839,5.8376,5.8374,5.8366,5.8366,5.8383,5.8373,5.8364,5.8362,5.8363,5.8365,5.8369,5.837,5.8398,5.8367,5.8368,5.8369,5.8369,5.8457,5.8458,0,0,0,0,0,0,5.8364,5.8364,5.839,5.839,5.8365,5.8368,5.8368,5.8375,5.8373,5.8371,5.8364,5.8361,5.8368,5.8369,5.837,5.8413,5.8368,5.8369,5.837,5.8455,5.8457,5.8459,0,0,0,0,0,0,5.8363,5.8366,5.839,5.8377,5.8379,5.837,5.8379,5.8376,5.838,5.8373,5.837,5.837,5.8367,5.8368,5.8392,5.8412,5.837,5.8371,5.8454,5.8456,5.8458,5.8498,0,0,0,0,0,0,5.8362,5.8366,5.838,5.8377,5.838,5.8412,5.838,5.8377,5.8383,5.8379,5.8378,5.8376,5.8366,5.839,5.8393,5.8414,5.8372,5.8452,5.8455,5.8457,5.8495,5.8501,5.8507,0,0,0,0,0,5.8361,5.839,5.8381,5.8384,5.8397,5.8413,5.8414,5.8402,5.8385,5.8398,5.8393,5.8376,5.841,5.8393,5.8396,5.8417,5.845,5.8454,5.8457,5.8492,5.85,5.8507,0,0,0,0,0,0,5.8395,5.839,5.8379,5.8408,5.8411,5.8407,5.8424,5.8411,5.8418,5.8415,5.8398,5.8398,5.8425,5.8423,5.8404,5.8452,5.8427,5.8431,5.8452,5.846,5.8466,5.8466,5.8373,0,0,0,0,0,5.8406,5.842,5.8414,5.8441,5.8443,5.8433,5.844,5.843,5.8433,5.8434,5.843,5.8433,5.8444,5.8452,5.8461,5.8494,5.8494,5.8511,5.8517,5.8522,5.8526,5.8544,5.8552,5.847,5.847,5.847,0,0,5.8428,5.8427,5.8437,5.8448,5.8449,5.8464,5.8435,5.8451,5.8462,5.8436,5.8458,5.8456,5.8458,5.8487,5.8499,5.8486,5.8548,5.8526,5.853,5.8531,5.8548,5.8556,5.8563,5.8472,5.8472,5.8471,0,0,5.8477,5.8477,5.85,5.8502,5.8505,5.8499,5.8504,5.8503,5.8501,5.8523,5.8504,5.8516,5.8536,5.8538,5.8542,5.8594,5.8579,5.8597,5.8629,5.8647,5.8654,5.8659,5.8678,5.8685,5.8601,5.8601,5.8601,0,5.8505,5.8527,5.8513,5.8532,5.8538,5.8515,5.8539,5.8541,5.8547,5.8551,5.8537,5.8561,5.8561,5.859,5.8603,5.8607,5.8613,5.8597,5.8654,5.8659,5.8664,5.8683,5.869,5.8604,5.8603,5.8603,5.8603,0,5.8561,5.8577,5.8595,5.8602,5.8609,5.863,5.862,5.8629,5.8619,5.8614,5.8638,5.8637,5.8647,5.8653,5.8642,5.8681,5.8673,5.8657,5.8631,5.8675,5.8692,5.8698,5.8607,5.8606,5.8605,5.8605,0,0,5.863,5.8631,5.8638,5.8642,5.8644,5.8655,5.8675,5.8686,5.8694,5.8699,5.8716,5.8733,5.8718,5.8723,5.8713,5.8728,5.877,5.871,5.871,5.8722,5.8814,5.8827,5.8835,5.876,5.8762,5.8763,5.8814,0,5.8679,5.8714,5.8703,5.8738,5.8753,5.8733,5.875,5.8753,5.875,5.8761,5.8757,5.877,5.8749,5.8752,5.8766,5.8762,5.8789,5.8758,5.8776,5.8777,5.8777,5.8844,5.8858,5.8906,5.8821,5.8822,5.8822,0,5.874,5.8749,5.8786,5.8787,5.8792,5.8808,5.8818,5.8829,5.8832,5.8829,5.8834,5.8821,5.8841,5.8815,5.8843,5.8822,5.8829,5.8828,5.883,5.8831,5.8803,5.8848,5.8921,5.8929,5.8832,5.8832,5.8831,0,5.8789,5.8809,5.8834,5.8838,5.8839,5.8851,5.8852,5.8854,5.8861,5.8869,5.8874,5.8884,5.8889,5.8897,5.8887,5.8869,5.8917,5.889,5.8914,5.8915,5.8925,5.8925,5.9002,5.8929,5.8928,5.8928,5.8928,0,5.8844,5.8868,5.8856,5.8872,5.8898,5.8885,5.8911,5.891,5.8912,5.8927,5.891,5.8924,5.891,5.8923,5.8915,5.8939,5.8942,5.8939,5.8937,5.8942,5.8942,5.8946,5.8943,5.893,5.893,5.8929,5.8929,0,5.8903,5.8896,5.8922,5.8922,5.8922,5.8942,5.8941,5.8956,5.8951,5.897,5.8974,5.8967,5.8981,5.8972,5.8986,5.8981,5.9013,5.9006,5.9013,5.9011,5.9037,5.9035,5.9119,5.913,5.9049,5.905,5.9051,0,5.8939,5.8957,5.8959,5.8969,5.8971,5.8986,5.8994,5.8982,5.8991,5.8997,5.9011,5.9024,5.9034,5.9058,5.9054,5.9065,5.9058,5.9087,5.906,5.9064,5.906,5.9059,5.9061,5.9093,5.9094,5.9095,5.9095,0,5.9005,5.9001,5.9014,5.9025,5.9035,5.9044,5.905,5.9059,5.9047,5.9058,5.9073,5.9081,5.9097,5.911,5.912,5.912,5.9106,5.9104,5.911,5.9115,5.9119,5.9118,5.9029,5.9102,5.9101,5.9101,5.91,5.91,5.9054,5.907,5.9074,5.9089,5.9093,5.91,5.9114,5.9112,5.9125,5.9137,5.9129,5.9147,5.9151,5.9162,5.9165,5.9179,5.9167,5.9176,5.9179,5.9181,5.9186,5.9116,5.918,5.918,5.918,5.918,5.918,0,5.912,5.9122,5.9136,5.9147,5.9158,5.9145,5.9152,5.9162,5.9179,5.9184,5.9194,5.9212,5.9226,5.9223,5.9235,5.9247,5.9241,5.925,5.925,5.925,5.9195,5.9188,5.9255,5.9255,5.9255,5.9255,5.9255,5.9255,5.9156,5.9182,5.9179,5.9207,5.9208,5.9227,5.9232,5.9239,5.9243,5.9264,5.9275,5.9274,5.9276,5.9288,5.93,5.9299,5.9304,5.9317,5.9313,5.9261,5.9254,5.9247,5.9241,5.9318,5.9318,5.9368,5.9368,5.9368]}]]